ボク彗星

C/2022 U3 ( Bok )

English version
Home page
Updated on March 23, 2025

---------------------------------------------------------------------

・ プロフィール

発見日 2022年10月31日
発見光度 19.6等
発見者 Hannes Groeller and Cassandra Lejoly (Bok NEO Survey)

・ 写真集

・ 軌道要素

Epoch 2025 May 5.0 TT = JDT 2460800.5
T 2024 July 28.66386 TT                                 Pike
q   4.8267379            (2000.0)            P               Q
z  -0.0000670      Peri.  189.13099     -0.17995674     -0.81308402
 +/-0.0000012      Node   272.78833     +0.93387725     +0.03558736
e   1.0003232      Incl.   33.66180     +0.30901271     -0.58105759
From 791 observations 2021 June 23-2025 Feb. 26, mean residual 0".5.

・ 光度変化

        m1 = 1.5 + 5 logΔ + 18.0 log r(t + 200)

---------------------------------------------------------------------

軌道要素はM.P.E.C. 2025-D254に掲載されたものです。
光度グラフはComet for Windowsで作成したものです。

---------------------------------------------------------------------

Copyright(C) Seiichi Yoshida (comet@aerith.net). All rights reserved.